#timestamp,LO_Frequency,Hit,StdDev 
1676797215.8,286046998.4,N
1676797235.6,286046999.4,N
1676797255.5,286046997.0,N
1676797275.3,286046996.7,N
1676797295.2,286046997.7,N
1676797315.9,286046996.6,N
1676797335.7,286046998.1,N
1676797355.6,286046998.9,N
1676797375.4,286046999.1,N
1676797395.3,286046998.5,N
1676797415.1,286046998.2,N
1676797416.0,286046998.2,N
1676797435.8,286046998.9,N
1676797455.7,286046998.4,N
1676797475.5,286046996.9,N
1676797495.4,286046995.1,Y
1676797515.2,286046996.6,P
1676797535.0,286046996.9,N
1676797535.9,286046996.9,P
1676797555.8,286046996.6,Y
1676797575.6,286046999.9,P
1676797595.5,286047002.8,N
1676797615.3,286047000.4,N
1676797635.1,286047001.7,N
1676797655.9,286047001.4,N
1676797675.7,286047004.0,N
1676797695.5,286047001.8,N
1676797715.4,286047002.1,N
1676797735.2,286046999.8,N
1676797755.1,286047002.2,N
1676797756.0,286047002.2,N
1676797775.8,286047002.4,N
1676797795.6,286047002.8,N
1676797815.5,286047002.6,N
1676797835.3,286047002.0,N
1676797855.2,286047004.4,N
1676797875.9,286047001.3,N
1676797895.7,286046999.7,N
1676797915.6,286047001.4,N
1676797935.4,286047004.4,N
1676797955.2,286047004.2,N
1676797975.1,286047004.2,N
1676797976.0,286047004.2,N
1676797995.8,286047002.9,N
1676798015.7,286047003.4,N
1676798035.5,286047003.6,N
1676798055.3,286047005.0,N
1676798075.2,286047004.1,N
1676798095.0,286047001.3,N
1676798095.9,286047001.3,N
1676798115.8,286047004.3,N
1676798135.6,286047004.0,N
1676798155.4,286047002.5,N
1676798175.3,286047004.0,N
1676798195.1,286047003.5,N
1676798215.8,286047003.0,N
1676798235.7,286047005.8,Y
1676798255.5,286047002.3,P
1676798275.4,286047002.1,P
1676798295.2,286047001.9,P
1676798315.1,286047002.7,Y
1676798316.0,286047002.7,P
1676798335.8,286047000.6,N
1676798355.6,286047000.4,N
1676798375.5,286047000.3,N
1676798395.3,286047000.1,N
1676798415.2,286047000.5,N
1676798435.9,286046998.1,N
1676798455.7,286047000.2,N
1676798475.6,286047003.8,Y
1676798495.4,286047002.5,P
1676798515.3,286047000.3,N
1676798535.1,286047002.1,N
1676798536.0,286047002.1,N
1676798555.8,286047000.2,N
1676798575.7,286047002.8,N
1676798595.5,286047000.1,N
1676798615.4,286046999.8,N
1676798635.2,286047000.3,N
1676798655.0,286047000.1,N
1676798655.9,286047000.1,N
1676798675.8,286047000.4,N
1676798695.6,286047002.7,N
1676798715.4,286047002.4,N
1676798735.3,286047000.7,N
1676798755.1,286047001.2,N
1676798775.9,286047000.7,N
1676798795.7,286047000.7,N
1676798815.5,286047000.7,N
1676798835.4,286047000.1,N
1676798855.2,286047002.7,N
1676798875.1,286047002.5,N
1676798876.0,286047002.5,N
1676798895.8,286046998.7,N
1676798915.6,286047000.4,N
1676798935.5,286046998.4,N
1676798955.3,286046999.4,N
1676798975.1,286046998.1,N
1676798995.9,286046996.7,N
1676799015.7,286046995.4,Y
1676799035.6,286046998.0,P
1676799055.4,286046998.9,N
1676799075.2,286047002.2,N
1676799095.1,286047001.5,N
1676799096.0,286047001.5,N
1676799115.9,286047005.6,Y
1676799135.7,286047001.5,P
1676799155.6,286047001.5,N
1676799175.4,286047004.4,P
1676799195.2,286047001.2,N
1676799215.1,286047000.9,N
1676799216.0,286047000.9,N
1676799235.8,286047001.1,N
1676799255.6,286047000.0,N
1676799275.5,286046999.9,N
1676799295.3,286046998.9,N
1676799315.2,286047000.4,N
1676799335.9,286047002.4,N
1676799355.7,286047001.4,N
1676799375.6,286047003.1,N
1676799395.4,286047005.4,Y
1676799415.3,286047005.2,P
1676799435.1,286047003.8,N
1676799436.0,286047003.8,N
1676799455.8,286047004.1,N
1676799475.7,286047003.9,N
1676799495.5,286047003.3,N
1676799515.3,286047003.4,Y
1676799535.2,286047000.7,P
1676799555.0,286046998.4,N
1676799555.9,286046998.4,N
1676799575.8,286047000.9,N
1676799595.6,286047002.8,N
1676799615.4,286047002.0,N
1676799635.3,286047002.7,N
1676799655.1,286047003.3,N
1676799675.8,286047004.0,N
1676799695.7,286047000.4,N
1676799715.5,286046998.7,N
1676799735.4,286046996.9,N
1676799755.2,286046997.3,N
1676799775.0,286046998.3,N
1676799775.9,286046998.3,N
1676799795.8,286046998.2,N
1676799815.6,286047000.8,N
1676799835.4,286046999.3,N
1676799855.3,286046999.1,N
1676799875.1,286046998.1,N
1676799895.9,286046998.6,N
1676799915.7,286046996.8,N
1676799935.5,286046999.3,N
1676799955.4,286046998.7,N
1676799975.2,286046998.7,N
1676799995.0,286046998.4,N
1676799995.9,286046998.4,N
1676800015.8,286046997.1,N
1676800035.6,286046997.6,N
1676800055.5,286046999.2,N
1676800075.3,286046996.5,N
1676800095.1,286046998.8,N
1676800115.9,286046997.3,N
1676800135.7,286046993.7,Y
1676800155.6,286046995.1,P
1676800175.4,286046994.6,N
1676800195.2,286046993.2,P
1676800215.1,286046992.0,Y
1676800216.0,286046992.0,P
1676800235.8,286046995.0,N
1676800255.7,286046999.1,N
1676800275.5,286047000.4,N
1676800295.3,286047000.5,N
1676800315.2,286047001.5,N
1676800335.0,286047004.4,N
1676800335.9,286047004.4,N
1676800355.7,286047004.5,N
1676800375.6,286047006.6,N
1676800395.4,286047006.5,N
1676800415.3,286047006.9,N
1676800435.1,286047003.8,N
1676800436.0,286047003.8,N
1676800455.8,286047001.3,N
1676800475.7,286047003.4,N
1676800495.5,286047006.0,N
1676800515.3,286047004.3,N
1676800535.2,286047003.3,N
1676800555.0,286047008.9,N
1676800555.9,286047008.9,N
1676800575.8,286047006.5,N
1676800595.6,286047006.2,N
1676800615.4,286047007.9,N
1676800635.3,286047007.1,N
1676800655.1,286047008.9,N
1676800675.8,286047012.3,N
1676800695.7,286047010.9,N
1676800715.5,286047011.6,N
1676800735.4,286047011.6,N
1676800755.2,286047012.1,N
1676800775.0,286047011.9,N
1676800775.9,286047011.9,Y
1676800795.8,286047003.3,P
